Date,TemperatureHighF,TemperatureAvgF,TemperatureLowF,DewpointHighF,DewpointAvgF,DewpointLowF,HumidityHigh,HumidityAvg,HumidityLow,PressureMaxIn,PressureMinIn,WindSpeedMaxMPH,WindSpeedAvgMPH,GustSpeedMaxMPH,PrecipitationSumIn
2013-1-1,44,40,35,31,28,22,69,61,49,30.06,29.95,5,0,7,0.00
2013-1-2,39,34,29,29,20,15,70,57,45,30.28,30.04,8,1,12,0.00
2013-1-3,40,32,26,24,18,14,74,57,41,30.31,30.20,8,1,10,0.00
2013-1-4,45,36,28,25,21,20,75,58,40,30.26,30.15,11,2,15,0.00
2013-1-5,45,38,32,32,23,20,76,54,42,30.43,30.19,10,2,14,0.00
2013-1-6,53,43,31,35,30,28,91,62,39,30.24,30.06,9,1,14,0.00
2013-1-7,47,40,30,32,27,25,83,60,45,30.48,30.18,8,1,11,0.00
2013-1-8,54,41,30,35,31,25,85,69,44,30.47,30.40,7,1,13,0.00
2013-1-9,51,42,33,42,36,30,92,80,51,30.43,30.28,5,0,9,0.00
2013-1-10,55,48,40,33,30,27,61,50,35,30.64,30.43,7,1,16,0.00
2013-1-11,47,42,37,43,36,29,95,77,58,30.54,30.14,7,1,9,0.05
2013-1-12,59,47,42,49,44,41,100,89,69,30.22,30.13,4,1,7,0.00
2013-1-13,57,49,43,56,48,42,99,97,95,30.18,30.01,7,1,12,0.01
2013-1-14,60,54,40,58,47,37,98,81,62,30.34,29.97,9,1,13,0.11
2013-1-15,40,39,35,38,37,34,95,93,90,30.39,30.19,4,1,7,0.64
2013-1-16,41,38,34,40,36,33,96,95,92,30.20,29.89,8,1,12,0.28
2013-1-17,44,41,38,41,34,30,100,76,63,30.17,30.01,5,1,9,0.02
2013-1-18,38,35,31,31,19,10,75,53,34,30.54,30.08,9,2,15,0.00
2013-1-19,55,43,33,33,28,22,75,56,38,30.47,30.01,11,4,18,0.00
2013-1-20,60,47,36,35,24,9,68,42,21,30.12,29.86,12,3,16,0.00
2013-1-21,47,36,30,28,19,11,61,50,41,30.14,29.83,10,2,14,0.00
2013-1-22,30,21,17,12,0,-4,50,39,29,30.35,29.98,14,4,19,0.00
2013-1-23,27,21,14,8,2,0,69,45,31,30.41,30.20,10,2,15,0.00
2013-1-24,28,22,16,15,9,2,87,61,34,30.57,30.15,9,2,18,0.02
2013-1-25,25,21,17,19,9,1,84,62,37,30.57,30.13,9,1,18,0.00
2013-1-26,35,28,23,24,21,18,84,74,56,30.48,30.14,10,1,10,0.02
2013-1-27,40,32,25,24,20,18,85,63,44,30.65,30.49,8,1,11,0.00
2013-1-28,46,38,33,41,33,22,98,85,64,30.55,30.09,13,2,15,0.16
2013-1-29,70,56,40,53,48,39,100,76,55,30.17,30.01,8,1,11,0.00
2013-1-30,71,62,57,63,57,52,97,83,72,30.01,29.24,26,5,33,0.88
2013-1-31,63,44,30,62,28,14,97,57,34,29.95,29.17,18,5,28,0.53
2013-2-1,34,28,20,25,12,4,87,52,38,30.44,29.85,18,3,26,0.00
2013-2-2,32,25,17,27,14,4,89,65,40,30.45,30.07,12,2,17,0.01
2013-2-3,36,30,25,30,26,17,93,83,55,30.07,29.88,14,1,17,0.01
2013-2-4,38,32,24,24,17,11,65,54,41,30.15,29.94,10,2,20,0.00
2013-2-5,40,36,32,29,26,22,76,67,55,29.99,29.89,5,0,8,0.00
2013-2-6,47,38,31,32,27,22,89,66,45,30.40,29.98,9,2,18,0.00
2013-2-7,38,34,28,29,25,22,80,69,59,30.49,30.26,9,2,12,0.00
2013-2-8,42,37,33,39,32,22,95,84,60,30.25,29.78,17,2,24,0.23
2013-2-9,43,34,29,23,19,16,66,54,38,30.44,29.95,14,3,23,0.00
2013-2-10,46,35,23,28,19,14,81,53,29,30.53,30.29,13,2,16,0.00
2013-2-11,54,46,38,51,42,28,94,89,55,30.29,29.75,10,3,14,0.25
2013-2-12,58,49,40,34,29,27,65,48,32,30.03,29.84,10,2,20,0.00
2013-2-13,46,38,33,36,30,26,95,74,52,30.00,29.69,8,2,12,0.25
2013-2-14,51,40,32,33,30,27,95,70,41,30.07,29.82,10,1,12,0.01
2013-2-15,61,45,35,38,33,30,93,67,32,30.07,29.92,15,2,20,0.13
2013-2-16,40,36,31,35,29,17,95,78,52,30.05,29.88,7,1,11,0.01
2013-2-17,32,28,24,18,12,6,64,51,37,30.26,29.88,16,4,21,0.00
2013-2-18,45,32,21,20,10,6,58,42,25,30.44,30.20,9,2,13,0.00
2013-2-19,46,41,38,42,31,19,90,69,43,30.20,29.76,14,4,22,0.11
2013-2-20,39,33,25,24,16,10,62,49,38,30.21,29.88,15,4,20,0.00
2013-2-21,40,30,24,19,15,10,63,52,39,30.38,30.17,14,2,17,0.00
2013-2-22,34,32,29,31,23,17,95,72,56,30.43,30.26,9,2,12,0.05
2013-2-23,46,39,32,44,37,30,96,95,92,30.26,29.85,6,0,6,0.07
2013-2-24,53,42,32,41,31,19,95,67,36,30.15,29.83,13,2,18,0.00
2013-2-25,49,37,28,26,23,20,76,58,38,30.26,30.14,7,1,10,0.00
2013-2-26,44,37,31,42,32,25,95,83,70,30.27,29.64,21,3,25,0.71
2013-2-27,58,47,39,43,38,34,96,74,46,29.73,29.55,9,2,13,0.02
2013-2-28,49,43,40,38,31,25,89,62,41,29.77,29.67,10,2,16,0.02
2013-3-1,44,41,36,32,28,24,71,62,49,29.92,29.76,8,2,14,0.00
2013-3-2,39,34,30,25,22,20,72,64,50,29.93,29.85,8,2,12,0.00
2013-3-3,41,34,29,23,20,17,72,58,43,29.95,29.83,11,2,15,0.00
2013-3-4,44,35,28,21,18,15,62,50,36,30.07,29.95,13,3,18,0.00
2013-3-5,53,40,30,30,20,11,77,48,20,30.13,29.86,10,2,16,0.00
2013-3-6,39,35,33,35,33,30,95,91,77,30.04,29.64,16,3,24,0.87
2013-3-7,50,42,36,32,29,26,78,60,41,30.18,30.03,11,2,22,0.01
2013-3-8,51,42,36,30,28,25,73,57,41,30.30,30.16,17,2,22,0.00
2013-3-9,62,46,33,29,26,22,72,47,23,30.39,30.28,8,1,10,0.00
2013-3-10,64,50,32,35,26,16,83,45,16,30.37,30.25,13,2,16,0.00
2013-3-11,61,52,44,50,44,35,90,76,64,30.28,29.97,10,3,16,0.00
2013-3-12,59,54,42,56,46,30,95,76,56,29.99,29.72,11,3,19,0.77
2013-3-13,51,42,33,37,27,19,84,57,30,30.10,29.93,12,2,21,0.00
2013-3-14,46,38,32,21,17,14,60,44,28,30.16,30.07,15,4,22,0.00
2013-3-15,58,45,31,33,25,18,70,46,29,30.13,29.81,13,2,20,0.00
2013-3-16,61,48,39,44,36,33,80,65,48,29.96,29.66,10,2,15,0.00
2013-3-17,41,38,34,33,29,25,86,71,57,30.31,29.94,8,1,10,0.00
2013-3-18,38,36,32,36,29,21,100,79,55,30.36,29.93,15,2,16,0.35
2013-3-19,61,46,36,40,30,10,100,63,18,29.94,29.75,13,3,23,0.01
2013-3-20,54,45,34,24,16,10,52,32,21,30.03,29.80,16,3,25,0.00
2013-3-21,40,34,29,28,16,9,82,47,33,29.95,29.80,13,3,16,0.00
2013-3-22,48,37,28,21,17,10,56,45,32,30.04,29.93,11,3,19,0.00
2013-3-23,54,42,29,26,23,20,73,49,31,30.08,29.95,9,2,14,0.00
2013-3-24,44,37,32,33,24,20,93,61,42,30.04,29.70,7,1,12,0.04
2013-3-25,37,34,32,36,33,31,95,94,91,29.75,29.56,6,0,10,0.49
2013-3-26,51,41,32,36,31,26,95,70,39,30.03,29.74,10,2,15,0.02
2013-3-27,51,43,36,31,28,24,71,56,39,30.16,30.03,13,3,18,0.00
2013-3-28,49,43,36,32,29,26,70,59,43,30.27,30.13,12,2,17,0.00
2013-3-29,58,47,37,34,30,27,72,53,33,30.30,30.18,12,2,17,0.00
2013-3-30,62,49,37,33,29,23,79,50,24,30.26,30.15,7,1,11,0.00
2013-3-31,56,50,45,50,40,29,93,71,47,30.16,29.77,8,2,14,0.02
2013-4-1,67,50,40,45,37,21,96,64,36,30.02,29.76,13,2,21,0.00
2013-4-2,50,42,34,21,16,11,57,36,22,30.21,30.02,11,2,18,0.00
2013-4-3,52,40,30,21,17,12,65,41,21,30.43,30.21,12,2,17,0.00
2013-4-4,51,40,28,36,20,12,89,47,23,30.45,30.14,11,2,15,0.08
2013-4-5,66,50,37,39,32,22,95,59,24,30.13,29.85,13,2,15,0.22
2013-4-6,60,48,37,32,22,16,57,37,22,30.36,30.08,9,2,13,0.00
2013-4-7,71,56,41,43,36,29,73,50,31,30.31,30.01,17,5,22,0.00
2013-4-8,82,69,52,50,46,42,72,45,27,30.10,29.96,12,3,16,0.00
2013-4-9,88,76,61,57,53,50,71,46,30,30.10,29.94,11,2,16,0.00
2013-4-10,92,81,65,58,54,52,67,42,29,29.98,29.79,9,3,16,0.00
2013-4-11,89,72,55,61,57,52,89,62,37,29.89,29.74,13,2,19,0.00
2013-4-12,73,59,51,65,56,50,97,91,75,29.83,29.58,13,2,18,0.60
2013-4-13,71,58,44,52,41,37,91,58,31,29.97,29.77,9,2,13,0.00
2013-4-14,69,57,43,45,39,36,85,56,32,30.17,29.97,9,1,13,0.00
2013-4-15,63,58,54,52,48,41,86,68,51,30.31,30.15,10,2,12,0.01
2013-4-16,76,64,54,60,54,47,84,71,53,30.34,30.13,15,3,21,0.00
2013-4-17,78,67,58,62,59,55,96,76,54,30.25,30.13,9,1,11,0.01
2013-4-18,66,66,65,58,58,58,78,77,76,30.02,30.01,7,3,11,0.09
2013-4-19,78,68,50,65,60,48,94,78,61,30.01,29.65,17,5,27,0.89
2013-4-20,62,53,46,48,32,26,94,48,28,30.36,29.80,11,2,19,0.02
2013-4-21,58,47,38,33,25,20,64,43,28,30.63,30.36,8,1,12,0.00
2013-4-22,58,47,36,38,35,32,89,64,43,30.61,30.43,11,2,16,0.00
2013-4-23,63,52,45,45,41,36,84,69,50,30.44,30.15,5,1,11,0.00
2013-4-24,79,63,46,56,50,43,91,66,39,30.15,29.81,18,3,26,0.00
2013-4-25,66,55,44,50,35,29,68,48,26,30.34,29.98,8,2,22,0.00
2013-4-26,69,56,44,41,36,32,81,52,27,30.48,30.33,8,1,10,0.00
2013-4-27,75,59,42,44,39,36,86,52,26,30.45,30.31,8,1,12,0.00
2013-4-28,68,58,48,52,43,36,82,58,33,30.32,30.16,10,2,15,0.01
2013-4-29,60,56,53,58,53,43,96,92,59,30.19,30.07,8,2,14,0.29
2013-4-30,58,55,54,56,54,49,99,95,85,30.31,30.11,7,1,13,0.08
2013-5-1,71,58,45,50,42,35,92,61,31,30.45,30.31,10,2,12,0.00
2013-5-2,71,56,43,51,45,41,95,71,41,30.47,30.34,8,1,12,0.00
2013-5-3,71,56,46,48,43,38,92,66,35,30.41,30.32,15,2,17,0.00
2013-5-4,68,56,47,46,43,39,86,63,41,30.37,30.20,11,2,15,0.00
2013-5-5,65,53,45,46,42,38,83,66,44,30.28,30.18,8,2,15,0.00
2013-5-6,61,55,49,57,51,44,94,87,80,30.21,30.08,10,2,14,0.00
2013-5-7,62,59,57,61,58,56,97,96,93,30.09,29.95,12,2,14,0.66
2013-5-8,74,62,56,59,56,52,96,83,48,30.02,29.94,14,1,14,0.01
2013-5-9,77,63,54,64,57,53,96,84,51,30.02,29.94,5,1,11,0.13
2013-5-10,87,70,55,65,58,54,97,72,37,30.03,29.87,7,1,14,0.30
2013-5-11,80,67,63,66,63,59,97,88,57,29.94,29.72,7,1,12,0.51
2013-5-12,67,59,48,63,42,30,97,58,28,30.06,29.76,13,2,15,0.01
2013-5-13,62,52,42,38,30,24,78,47,25,30.20,30.05,7,1,22,0.00
2013-5-14,68,53,37,41,35,29,90,54,28,30.25,30.08,7,1,12,0.00
2013-5-15,85,68,56,64,53,40,73,58,45,30.08,29.70,13,2,17,0.00
2013-5-16,85,75,65,62,60,56,79,60,43,29.94,29.76,6,1,22,0.00
2013-5-17,87,72,58,60,53,43,91,54,28,30.16,29.94,8,1,11,0.00
2013-5-18,68,63,59,58,56,50,93,78,51,30.26,30.16,7,2,13,0.04
2013-5-19,74,65,58,66,62,56,98,91,74,30.23,30.10,7,1,9,0.02
2013-5-20,83,73,66,70,66,64,94,80,60,30.13,29.99,7,2,12,0.00
2013-5-21,85,75,68,71,68,66,93,79,61,30.02,29.90,7,2,13,0.00
2013-5-22,90,78,67,73,69,63,95,76,54,29.95,29.85,10,2,15,0.11
2013-5-23,82,72,64,69,66,63,96,82,60,29.93,29.76,11,2,17,0.78
2013-5-24,64,57,48,63,49,35,97,77,54,30.18,29.75,10,1,14,0.06
2013-5-25,68,55,44,40,36,33,70,51,32,30.21,30.11,10,2,16,0.00
2013-5-26,73,60,46,43,38,35,74,48,27,30.25,30.15,6,1,12,0.00
2013-5-27,73,61,47,52,44,39,83,57,31,30.31,30.21,4,0,9,0.00
2013-5-28,84,68,56,70,60,50,95,77,54,30.23,30.08,7,1,12,0.24
2013-5-29,92,79,66,70,66,64,93,68,41,30.14,30.09,7,2,12,0.01
2013-5-30,95,81,69,70,66,63,82,62,38,30.19,30.11,9,2,12,0.00
2013-5-31,92,81,67,67,65,63,90,60,40,30.16,30.05,10,2,17,0.00
2013-6-1,93,82,71,70,66,63,78,60,44,30.07,29.94,10,2,13,0.00
2013-6-2,86,77,68,71,67,63,96,73,58,29.94,29.86,13,3,15,0.43
2013-6-3,84,73,65,70,66,57,97,81,58,29.96,29.83,4,1,9,0.45
2013-6-4,80,67,57,57,49,42,83,56,31,30.15,29.97,6,1,10,0.00
2013-6-5,82,69,54,58,54,51,92,63,36,30.19,30.07,9,2,14,0.00
2013-6-6,74,68,64,64,60,53,95,75,59,30.10,29.87,8,2,17,0.36
2013-6-7,70,68,65,70,67,64,98,97,95,29.87,29.60,7,0,11,1.79
2013-6-8,81,70,64,64,62,60,96,78,52,30.10,29.71,5,0,7,0.00
2013-6-9,83,73,63,70,64,60,90,75,53,30.20,30.10,11,1,11,0.02
2013-6-10,79,72,69,76,70,66,97,93,84,30.11,29.81,8,1,15,1.48
2013-6-11,85,74,66,69,66,64,97,77,55,29.87,29.80,7,1,13,0.00
2013-6-12,91,79,67,71,67,63,89,69,45,29.88,29.80,8,1,10,0.00
2013-6-13,89,75,68,73,67,57,93,78,52,29.82,29.47,11,2,22,0.33
2013-6-14,80,69,60,58,56,50,89,64,42,29.99,29.60,9,1,14,0.01
2013-6-15,86,72,59,60,57,53,92,64,35,30.09,29.99,4,0,11,0.00
2013-6-16,86,75,63,70,63,58,83,69,48,30.04,29.89,7,1,16,0.00
2013-6-17,92,79,68,71,67,63,89,68,44,29.97,29.89,6,1,10,0.00
2013-6-18,76,71,64,71,68,63,97,90,77,29.93,29.81,8,0,8,0.15
2013-6-19,77,69,63,64,62,59,97,80,59,30.17,29.90,5,0,8,0.00
2013-6-20,82,72,61,64,60,54,94,69,48,30.28,30.17,9,2,11,0.00
2013-6-21,86,72,58,64,55,47,90,59,32,30.32,30.24,6,1,10,0.00
2013-6-22,89,77,64,67,65,62,95,69,45,30.27,30.15,10,2,13,0.00
2013-6-23,87,76,69,74,69,66,96,81,59,30.20,30.09,7,1,10,0.36
2013-6-24,95,79,71,74,70,65,95,76,45,30.14,30.04,7,1,10,0.00
2013-6-25,95,81,69,72,70,62,95,71,44,30.06,29.91,6,1,11,0.06
2013-6-26,93,78,68,78,70,66,95,80,48,29.94,29.83,6,0,11,0.16
2013-6-27,84,74,69,73,70,68,97,87,67,29.86,29.64,8,2,14,0.23
2013-6-28,90,75,69,73,70,68,97,87,54,29.65,29.53,9,1,12,1.19
2013-6-29,91,77,66,71,66,62,98,72,41,29.71,29.54,7,1,9,0.00
2013-6-30,88,77,70,77,72,68,97,85,60,29.87,29.70,12,1,19,0.64
2013-7-1,84,76,71,75,72,69,97,87,65,30.00,29.86,8,1,13,0.16
2013-7-2,82,76,74,75,72,71,93,87,71,30.19,30.00,11,3,14,0.05
2013-7-3,89,76,72,78,73,70,98,89,67,30.25,30.17,6,1,10,0.94
2013-7-4,91,81,75,76,72,69,93,77,55,30.27,30.18,10,3,16,0.00
2013-7-5,91,82,75,74,72,70,88,72,52,30.24,30.14,10,3,16,0.00
2013-7-6,96,83,75,74,72,70,91,72,48,30.20,30.09,11,2,12,0.00
2013-7-7,94,80,70,75,72,68,96,76,52,30.13,30.01,10,2,16,0.15
2013-7-8,87,77,70,73,70,66,97,81,53,30.13,30.05,6,1,8,0.03
2013-7-9,80,74,71,73,70,68,93,87,78,30.12,30.08,2,0,4,0.00
2013-7-10,90,82,75,76,73,70,86,74,54,29.94,29.87,8,2,18,0.00
2013-7-11,87,77,72,73,71,68,95,82,56,29.93,29.85,8,1,8,0.03
2013-7-12,72,69,66,70,67,65,97,95,88,30.04,29.91,4,0,8,2.89
2013-7-13,86,76,69,75,70,67,96,83,64,30.28,30.04,6,1,8,0.01
2013-7-14,93,82,74,75,72,69,96,76,50,30.35,30.28,7,1,10,0.00
2013-7-15,95,83,72,76,73,70,95,75,52,30.32,30.21,4,0,6,0.00
2013-7-16,96,84,76,76,72,67,90,69,46,30.25,30.18,5,0,9,0.00
2013-7-17,97,84,75,77,72,68,90,70,43,30.22,30.11,3,0,7,0.00
2013-7-18,100,86,76,80,76,73,92,73,46,30.14,30.01,4,0,7,0.00
2013-7-19,99,88,78,79,76,72,90,69,48,30.03,29.88,7,1,16,0.00
2013-7-20,95,84,78,76,73,69,88,70,50,29.91,29.80,8,2,15,0.00
2013-7-21,95,80,73,76,72,69,93,77,46,29.95,29.89,6,0,7,0.03
2013-7-22,91,81,73,75,73,69,96,79,54,29.94,29.77,8,1,12,0.01
2013-7-23,88,79,72,72,71,68,95,78,56,29.78,29.65,4,0,10,0.00
2013-7-24,86,76,70,70,66,59,88,71,54,29.92,29.69,4,0,7,0.00
2013-7-25,82,70,62,63,57,52,84,64,45,30.05,29.92,5,1,9,0.00
2013-7-26,87,73,62,64,61,58,94,70,40,30.11,30.03,5,0,8,0.00
2013-7-27,86,74,69,70,68,63,96,80,55,30.07,29.93,9,2,13,1.14
2013-7-28,86,75,70,72,69,66,96,82,59,30.01,29.90,6,1,10,0.04
2013-7-29,85,72,62,70,60,54,92,69,37,30.18,30.00,4,0,9,0.00
2013-7-30,84,72,61,64,60,57,91,69,44,30.25,30.16,8,0,9,0.00
2013-7-31,81,73,66,68,65,63,93,78,57,30.17,30.04,9,1,17,0.02
2013-8-1,86,74,68,73,70,66,96,87,63,30.03,29.82,6,1,10,0.24
2013-8-2,89,76,66,69,66,63,96,73,45,29.98,29.86,7,1,12,0.00
2013-8-3,77,71,66,70,66,64,96,87,68,29.99,29.93,3,0,5,0.11
2013-8-4,83,71,63,65,60,54,97,71,43,30.05,29.92,7,1,10,0.01
2013-8-5,84,70,58,61,57,51,92,67,35,30.12,30.03,6,0,9,0.00
2013-8-6,74,70,67,67,65,60,91,84,74,30.09,30.02,7,1,9,0.02
2013-8-7,84,75,70,73,69,66,92,81,68,30.09,30.00,11,2,15,0.02
2013-8-8,86,78,74,75,72,70,93,82,64,30.05,29.98,11,2,13,0.07
2013-8-9,91,82,76,77,74,71,91,77,58,29.98,29.87,11,2,16,0.00
2013-8-10,87,77,70,71,67,57,90,72,42,30.10,29.95,5,0,6,0.00
2013-8-11,88,77,70,71,68,64,94,74,49,30.12,30.02,6,1,10,0.00
2013-8-12,91,79,70,73,69,65,95,75,48,30.05,29.93,3,0,7,0.00
2013-8-13,87,77,70,73,71,68,96,82,57,29.93,29.75,8,1,11,0.71
2013-8-14,76,66,57,69,54,50,96,67,46,30.11,29.83,7,1,10,0.01
2013-8-15,81,66,54,57,53,47,93,67,34,30.21,30.11,5,0,7,0.00
2013-8-16,80,67,56,60,56,54,95,71,43,30.22,30.15,7,0,8,0.00
2013-8-17,80,69,58,61,58,55,95,71,45,30.28,30.21,8,1,10,0.00
2013-8-18,72,67,64,66,63,58,95,86,65,30.25,30.18,4,0,6,0.08
2013-8-19,75,68,61,67,64,60,96,86,71,30.20,30.09,6,1,11,0.00
2013-8-20,90,76,64,70,67,63,96,76,45,30.18,30.10,6,0,9,0.00
2013-8-21,91,78,70,73,70,67,96,78,49,30.21,30.08,8,1,11,0.04
2013-8-22,92,79,70,71,69,67,96,74,48,30.10,29.95,8,0,9,0.00
2013-8-23,76,70,62,71,66,60,95,86,74,30.13,29.95,4,0,8,0.08
2013-8-24,84,70,59,63,59,56,96,72,44,30.35,30.13,6,0,8,0.00
2013-8-25,86,71,59,64,58,53,98,68,38,30.43,30.29,7,1,11,0.00
2013-8-26,89,75,63,66,61,56,81,64,40,30.31,30.03,8,1,12,0.00
2013-8-27,91,79,71,72,69,65,86,72,50,30.03,29.90,4,0,9,0.00
2013-8-28,80,75,71,75,71,68,96,89,80,29.94,29.83,4,0,6,0.04
2013-8-29,85,76,70,72,70,68,97,83,60,30.04,29.84,8,1,8,0.00
2013-8-30,88,78,71,72,69,67,88,74,53,30.06,29.90,12,2,12,0.00
2013-8-31,91,80,72,74,70,67,87,74,53,29.92,29.81,8,2,14,0.00
2013-9-1,94,80,69,74,70,67,94,73,46,29.86,29.77,6,1,10,0.00
2013-9-2,92,80,70,74,71,67,96,77,50,29.82,29.74,6,1,11,0.09
2013-9-3,86,76,67,73,64,56,95,67,42,29.98,29.74,5,1,9,0.02
2013-9-4,85,70,58,60,56,49,90,63,31,30.10,29.97,7,0,10,0.00
2013-9-5,86,72,60,64,58,50,93,66,45,30.15,30.02,6,1,11,0.00
2013-9-6,79,66,56,54,49,43,83,57,32,30.28,30.15,6,1,8,0.00
2013-9-7,83,68,53,64,58,51,93,71,45,30.17,29.95,7,1,10,0.00
2013-9-8,88,75,65,67,64,59,93,71,47,30.06,29.89,5,0,8,0.00
2013-9-9,80,71,62,68,58,49,83,64,53,30.22,30.06,8,1,10,0.00
2013-9-10,93,81,72,74,71,68,90,74,51,30.19,30.10,7,2,11,0.00
2013-9-11,96,83,74,76,72,68,92,71,44,30.16,30.02,8,1,13,0.00
2013-9-12,92,77,69,77,70,66,97,82,53,30.02,29.76,6,1,14,0.63
2013-9-13,81,69,60,69,59,51,97,74,40,29.95,29.71,5,1,9,0.01
2013-9-14,72,60,51,51,47,45,87,65,42,30.18,29.95,7,0,11,0.00
2013-9-15,78,63,48,59,52,46,94,70,42,30.26,30.10,7,1,11,0.00
2013-9-16,73,65,58,62,58,55,93,79,57,30.24,30.05,6,1,8,0.03
2013-9-17,70,58,50,56,46,38,90,65,35,30.45,30.25,6,1,9,0.00
2013-9-18,74,58,46,52,47,42,94,72,33,30.37,30.21,6,1,9,0.00
2013-9-19,79,66,52,58,55,50,94,71,45,30.22,30.10,7,1,9,0.00
2013-9-20,82,69,56,62,58,54,93,72,50,30.11,29.97,8,1,11,0.00
2013-9-21,76,67,62,66,61,58,97,82,61,29.99,29.70,10,2,16,1.20
2013-9-22,73,63,55,61,55,49,97,77,50,29.96,29.74,5,0,8,0.00
2013-9-23,68,58,50,50,47,42,91,69,46,30.11,29.96,5,0,10,0.00
2013-9-24,73,57,45,52,48,43,94,73,43,30.14,29.97,4,0,6,0.00
2013-9-25,76,60,48,55,49,42,98,72,31,30.01,29.90,4,0,7,0.00
2013-9-26,77,62,53,56,53,51,94,75,46,30.09,29.94,5,0,10,0.00
2013-9-27,71,62,53,60,56,51,94,82,62,30.26,30.09,5,0,8,0.00
2013-9-28,68,61,55,56,54,52,94,80,58,30.32,30.23,7,0,9,0.00
2013-9-29,75,60,49,58,54,48,95,83,52,30.23,30.08,3,0,7,0.00
2013-9-30,78,62,51,57,54,49,96,75,44,30.12,30.00,7,0,9,0.00
2013-10-1,84,68,57,64,59,54,92,75,44,30.09,29.98,3,0,6,0.00
2013-10-2,87,70,58,64,60,56,95,73,43,30.10,30.01,4,0,9,0.00
2013-10-3,84,71,61,67,63,58,93,76,52,30.13,30.05,6,0,7,0.00
2013-10-4,88,73,61,69,64,60,96,78,46,30.10,30.03,4,0,6,0.00
2013-10-5,90,76,65,69,66,63,95,75,44,30.10,30.01,7,0,8,0.00
2013-10-6,88,77,66,70,66,63,94,71,45,30.04,29.93,11,2,19,0.00
2013-10-7,74,66,55,70,62,48,96,88,77,30.07,29.80,12,2,20,1.36
2013-10-8,68,57,48,51,48,45,92,74,48,30.30,30.07,5,0,11,0.01
2013-10-9,61,55,52,52,50,46,94,82,69,30.34,30.23,5,1,11,0.15
2013-10-10,57,55,52,56,54,51,97,96,93,30.23,30.00,4,0,8,1.93
2013-10-11,62,59,55,61,58,54,98,97,97,30.02,29.95,5,0,7,2.01
2013-10-12,67,62,60,61,60,58,98,93,78,30.17,30.00,7,1,10,0.19
2013-10-13,63,60,57,59,57,53,96,91,81,30.34,30.17,8,1,11,0.02
2013-10-14,71,60,54,56,54,52,95,82,57,30.36,30.24,4,0,7,0.00
2013-10-15,74,60,51,57,51,44,97,75,39,30.26,30.11,7,0,8,0.00
2013-10-16,72,65,59,63,60,57,95,85,71,30.11,29.93,6,1,8,0.01
2013-10-17,78,68,60,65,62,56,96,83,62,29.93,29.73,13,1,14,0.05
2013-10-18,68,58,48,56,46,43,91,68,43,30.03,29.83,5,1,11,0.00
2013-10-19,67,56,46,58,50,45,95,83,59,30.03,29.81,9,1,14,0.00
2013-10-20,64,53,44,49,40,36,88,63,36,30.13,29.88,7,1,12,0.00
2013-10-21,68,55,41,48,43,38,94,68,36,30.18,29.99,11,1,14,0.00
2013-10-22,66,55,47,53,46,39,87,73,55,29.99,29.84,6,0,8,0.00
2013-10-23,60,50,44,41,37,34,80,62,42,29.93,29.68,4,0,7,0.00
2013-10-24,53,44,36,38,33,27,84,66,43,30.17,29.93,7,1,11,0.00
2013-10-25,56,44,34,36,32,30,86,66,43,30.36,30.17,6,1,10,0.00
2013-10-26,57,46,32,36,31,29,90,60,36,30.34,29.98,13,2,18,0.00
2013-10-27,62,49,39,40,37,32,86,65,39,30.18,29.99,6,0,13,0.00
2013-10-28,66,50,38,45,39,35,91,69,39,30.31,30.17,5,0,7,0.00
2013-10-29,66,51,39,46,42,37,93,73,44,30.41,30.31,4,0,7,0.00
2013-10-30,66,56,49,56,52,45,95,86,70,30.35,30.17,6,1,9,0.05
2013-10-31,69,62,55,61,57,54,95,86,73,30.21,29.80,12,2,17,0.02
2013-11-1,75,67,58,64,60,56,94,79,53,29.80,29.61,17,3,28,0.15
2013-11-2,70,58,48,57,47,39,94,68,44,29.90,29.66,7,0,9,0.00
2013-11-3,58,48,40,42,34,23,85,59,27,30.48,29.90,7,1,16,0.00
2013-11-4,47,39,32,29,24,20,74,56,36,30.68,30.49,6,1,9,0.00
2013-11-5,58,48,36,48,39,28,83,73,60,30.65,30.49,5,0,7,0.00
2013-11-6,68,59,51,54,50,47,86,73,56,30.50,30.09,10,2,14,0.00
2013-11-7,62,54,43,56,46,25,92,75,45,30.11,29.90,8,2,11,0.01
2013-11-8,53,42,35,32,27,23,79,56,34,30.35,30.11,9,1,13,0.00
2013-11-9,56,44,30,34,29,26,92,59,37,30.40,30.07,11,2,17,0.00
2013-11-10,64,50,38,38,31,28,78,49,29,30.26,29.99,10,2,18,0.00
2013-11-11,58,49,36,35,31,28,78,52,36,30.34,30.03,10,2,12,0.00
2013-11-12,52,41,30,38,24,15,67,52,41,30.44,30.01,11,1,16,0.00
2013-11-13,44,35,29,23,20,18,67,55,41,30.52,30.43,8,1,13,0.00
2013-11-14,59,41,27,28,22,17,78,51,22,30.43,30.26,7,1,9,0.00
2013-11-15,62,47,31,44,29,24,91,54,27,30.32,30.22,7,1,9,0.05
2013-11-16,52,49,44,50,47,42,96,93,88,30.36,30.26,6,1,7,0.23
2013-11-17,63,58,51,58,55,50,96,89,80,30.26,29.77,12,2,19,0.01
2013-11-18,69,60,49,60,39,25,91,52,20,29.97,29.71,16,3,18,0.09
2013-11-19,50,44,37,29,27,25,65,51,42,30.40,29.97,9,2,12,0.00
2013-11-20,47,38,33,29,25,22,77,59,41,30.61,30.41,7,1,10,0.00
2013-11-21,50,42,32,41,34,28,88,73,58,30.61,30.43,3,0,5,0.00
2013-11-22,63,54,46,52,47,39,84,77,66,30.43,30.03,7,1,9,0.00
2013-11-23,56,45,31,48,29,12,76,54,39,30.23,30.06,11,3,15,0.00
2013-11-24,32,27,24,11,8,5,55,44,34,30.57,30.23,16,3,22,0.00
2013-11-25,38,30,21,19,11,8,64,45,29,30.63,30.39,11,2,13,0.00
2013-11-26,44,36,33,43,29,14,96,77,38,30.39,29.65,7,2,14,0.01
2013-11-27,39,36,29,37,32,16,96,85,56,30.08,29.56,14,3,20,0.03
2013-11-28,39,32,27,24,17,14,74,55,39,30.52,30.08,13,2,15,0.00
2013-11-29,44,34,26,26,21,19,87,61,40,30.77,30.51,7,1,10,0.00
2013-11-30,38,32,25,26,21,18,83,64,48,30.77,30.43,6,1,8,0.00
2013-12-1,50,39,26,32,28,23,92,67,47,30.42,30.06,5,0,7,0.00
2013-12-2,49,44,41,40,36,32,79,74,62,30.06,29.91,5,0,7,0.00
2013-12-3,58,47,41,40,38,35,86,72,49,30.02,29.91,8,0,9,0.00
2013-12-4,56,49,40,49,44,37,90,82,71,30.12,30.02,5,1,7,0.00
2013-12-5,71,61,52,61,56,49,92,85,67,30.10,29.94,12,3,18,0.00
2013-12-6,65,51,38,63,49,36,94,93,89,30.21,29.90,9,2,14,0.80
2013-12-7,44,37,30,36,30,21,94,77,61,30.59,30.16,8,1,11,0.18
2013-12-8,32,29,27,30,24,19,94,82,68,30.64,30.34,6,1,12,0.20
2013-12-9,34,33,32,33,31,30,95,95,94,30.36,30.12,2,0,3,0.87
2013-12-10,37,33,28,34,30,22,96,89,66,30.28,30.03,13,1,15,0.21
2013-12-11,42,31,23,25,22,19,86,70,42,30.46,30.28,9,1,10,0.12
2013-12-12,33,28,25,24,15,9,88,59,41,30.49,30.30,11,1,11,0.00
2013-12-13,44,34,25,25,18,13,72,54,34,30.35,30.27,13,1,13,0.00
2013-12-14,39,36,32,35,30,22,95,80,58,30.37,29.75,8,2,14,0.45
2013-12-15,47,37,30,39,30,22,95,76,52,29.99,29.67,20,2,22,0.01
2013-12-16,38,35,32,27,24,21,77,65,56,30.24,29.99,6,1,13,0.00
2013-12-17,40,36,33,33,29,25,83,76,71,30.21,29.98,8,1,10,0.00
2013-12-18,42,34,28,30,24,20,90,68,45,30.27,30.03,14,1,19,0.00
2013-12-19,62,45,28,33,28,23,84,55,32,30.26,30.12,7,2,10,0.00
2013-12-20,60,53,43,44,35,29,63,50,40,30.16,30.04,7,2,11,0.00
2013-12-21,72,62,54,60,51,42,80,67,54,30.06,29.92,16,4,25,0.00
2013-12-22,70,64,62,63,60,58,95,86,75,30.03,29.85,19,4,30,0.23
2013-12-23,63,54,38,62,50,28,96,85,64,30.27,29.94,9,2,12,0.72
2013-12-24,41,34,23,28,20,8,76,58,43,30.53,30.24,12,2,16,0.00
2013-12-25,34,27,20,21,12,9,75,56,40,30.63,30.44,6,1,11,0.00
2013-12-26,46,34,27,25,22,19,82,64,41,30.44,30.27,7,1,11,0.00
2013-12-27,52,38,27,27,22,18,78,54,29,30.48,30.36,9,1,12,0.00
2013-12-28,59,45,30,30,26,23,79,51,28,30.38,30.16,7,1,10,0.00
2013-12-29,49,45,40,45,39,28,99,84,45,30.16,29.58,8,2,13,1.27
2013-12-30,45,39,33,39,32,21,94,75,61,30.23,29.85,10,1,10,0.00
2013-12-31,46,36,29,30,21,16,71,56,40,30.38,30.15,15,2,25,0.00
2014-1-1,46,37,27,32,26,17,80,63,46,30.48,30.18,12,1,13,0.00
2014-1-2,40,34,30,33,30,28,95,88,68,30.17,29.67,8,1,11,0.02